Theta_e
338 343 345 341 342 341 341 338 336 334 333 332 334 336 339 338 337 335 333 332 330 328 328 331 331 337 336 336 337 336 333 331 331 328 323 322 319 325 330 330 330 329 329
338 344 345 340 341 342 342 340 335 334 333 332 334 335 337 336 335 335 332 331 331 327 327 328 330 332 334 336 336 335 334 333 331 327 324 320 321 322 327 328 329 328 328
339 344 343 343 344 343 343 339 335 334 333 330 334 336 335 331 330 331 331 330 327 329 327 326 327 327 328 329 330 331 331 331 329 327 326 322 322 324 330 326 329 327 327
338 341 341 344 344 343 343 340 334 333 333 331 334 335 330 332 329 327 327 327 328 328 324 324 322 321 322 325 325 324 327 328 329 325 324 320 323 324 328 329 328 329 329
338 341 342 344 343 344 343 339 335 333 331 331 331 332 329 330 328 331 330 330 328 328 323 324 323 324 326 325 327 331 331 329 326 325 323 320 319 317 322 328 330 331 330
337 341 342 343 345 343 341 338 336 334 332 331 331 330 330 332 333 333 332 331 329 328 325 324 326 329 329 329 330 332 333 330 330 329 327 326 325 323 323 325 327 329 328
337 342 342 342 344 342 340 339 336 336 334 332 332 329 329 332 333 333 334 332 329 329 328 327 331 332 332 332 332 331 329 328 329 328 326 326 326 327 330 331 329 330 331
335 341 341 342 342 341 341 338 335 334 333 330 330 331 331 331 329 333 334 333 332 330 329 329 331 331 331 330 331 330 329 329 330 329 328 329 329 329 332 332 332 332 331
334 338 340 341 341 341 339 337 334 332 334 331 326 330 332 330 328 332 334 333 333 330 327 328 331 331 331 332 332 331 331 331 329 328 328 328 329 328 334 334 335 335 335
334 337 339 339 341 341 341 338 334 332 336 332 332 327 330 329 327 327 334 333 328 328 329 331 332 332 331 331 331 331 330 329 327 326 327 328 327 329 333 334 334 335 334
338 337 339 339 341 340 340 339 335 334 334 334 333 332 330 327 323 326 326 327 329 330 331 331 332 332 331 330 328 327 324 321 320 320 322 324 326 328 328 327 328 331 331
340 339 339 341 342 341 340 340 335 334 335 335 334 333 326 323 322 328 328 329 330 331 331 332 332 328 323 321 320 318 316 314 314 314 314 317 319 323 325 325 326 330 329
336 339 339 341 342 340 340 340 337 334 336 335 333 332 327 327 328 328 330 331 331 332 333 331 322 319 317 316 313 311 309 309 309 310 311 313 319 322 323 325 324 323 324
334 336 338 341 343 341 341 340 337 335 335 334 333 331 329 329 330 330 332 329 328 328 324 319 317 313 311 308 306 304 304 303 305 308 310 312 315 321 320 319 318 318 321
332 333 336 339 342 342 342 340 338 335 335 334 333 330 331 330 331 331 327 326 321 318 317 314 311 307 304 302 301 301 301 303 305 306 306 306 313 312 313 313 312 315 315
325 327 330 335 340 342 342 340 338 336 336 334 332 332 332 330 331 327 324 320 316 313 310 306 303 301 300 299 299 299 299 302 302 303 303 302 302 305 308 308 308 309 309
321 321 321 323 331 340 341 340 337 335 335 334 334 334 332 330 330 324 318 317 313 305 302 301 300 299 298 298 297 297 298 299 300 299 300 299 298 298 300 302 302 303 304
321 320 321 319 323 337 340 339 336 336 336 335 332 331 331 330 325 318 316 310 303 301 300 299 298 297 297 297 296 296 296 298 297 297 297 296 295 296 296 295 294 295 298
321 321 321 323 327 335 339 337 337 337 336 332 331 332 329 323 320 316 308 303 301 301 300 298 296 295 295 296 296 296 296 300 297 296 296 295 295 294 294 293 293 292 292
320 322 323 328 332 335 338 337 337 334 331 330 330 326 322 317 313 307 304 303 301 300 298 296 294 293 293 294 295 295 298 301 298 297 296 293 294 294 293 292 291 291 290
320 325 328 333 334 336 336 331 327 326 323 323 320 317 313 307 306 305 304 302 300 299 296 294 293 292 292 292 294 296 295 295 298 296 296 293 293 292 292 291 291 290 290
322 327 332 334 331 332 331 325 326 322 314 315 309 306 304 304 304 304 303 300 298 296 294 293 293 292 291 292 292 294 296 296 294 294 293 293 292 292 291 290 290 289 290
322 328 329 328 328 327 326 326 321 315 308 304 301 301 301 302 302 302 300 299 296 294 293 292 291 291 292 291 290 292 294 294 292 293 293 292 291 290 289 289 289 289 288
321 326 329 328 326 327 330 325 325 310 304 300 300 300 299 300 300 299 298 296 294 293 292 291 290 290 290 291 290 290 290 290 292 292 291 291 289 289 288 288 288 288 288
320 324 328 325 324 326 325 329 318 306 305 301 299 299 298 297 297 297 296 294 293 292 291 290 290 289 289 289 289 289 289 289 289 291 291 290 289 289 288 287 287 287 287
320 323 326 321 320 323 322 320 317 313 302 299 297 297 296 296 295 295 294 293 292 291 290 289 289 289 289 288 288 287 288 288 289 289 289 289 289 288 287 287 287 287 287
Wind_Speed
17 22 22 16 17 16 14 13 10 8 6 4 5 7 7 10 10 8 5 4 4 7 5 4 4 9 5 5 8 7 3 1 3 7 10 10 5 3 1 4 5 6 6
24 26 23 18 18 16 15 13 10 7 5 4 7 8 8 8 6 8 7 4 4 6 6 3 2 5 8 9 7 5 4 1 3 6 8 7 5 4 2 1 2 4 7
27 26 24 20 19 17 15 13 10 8 5 6 8 9 11 6 3 5 4 2 3 5 6 4 3 1 1 1 2 2 1 2 4 5 6 5 4 4 4 2 4 6 5
26 27 23 21 19 17 14 12 10 7 7 7 8 10 9 8 5 5 4 4 4 4 6 5 5 3 0 1 1 2 2 2 4 6 4 5 5 4 4 3 4 5 4
24 26 23 20 18 17 15 12 9 8 9 9 9 8 7 6 7 6 5 3 1 4 5 6 6 6 5 3 3 3 4 3 4 5 5 4 6 6 4 5 6 8 7
23 23 22 18 19 18 14 12 9 9 9 10 8 10 7 7 7 7 6 4 2 2 4 5 6 6 5 5 4 4 5 5 7 6 7 7 7 7 7 8 8 7 10
21 21 19 19 18 15 14 12 10 9 8 9 9 9 6 4 1 6 7 6 3 1 3 4 5 6 6 6 5 5 4 5 6 7 7 7 8 8 8 9 10 11 12
20 20 19 18 18 16 13 12 10 9 7 6 9 8 6 4 1 3 9 7 3 1 3 4 5 5 5 5 4 4 4 5 6 7 8 8 8 8 10 10 10 12 14
17 18 18 18 17 16 13 13 10 9 7 4 5 8 7 5 2 3 5 5 2 1 2 4 4 4 4 5 6 5 6 6 8 10 10 9 9 9 11 12 14 15 16
15 17 18 19 18 17 15 14 11 10 9 7 4 6 7 7 5 3 4 3 2 0 1 3 4 4 5 6 6 6 7 7 6 8 9 8 8 9 10 10 12 13 15
13 17 18 19 19 18 17 15 12 12 9 8 6 5 5 5 6 5 4 3 2 1 1 3 5 5 4 4 5 6 6 7 6 7 8 8 7 9 10 11 11 12 12
15 17 20 20 20 20 19 17 15 14 12 11 8 5 3 5 6 5 4 3 1 0 2 3 3 3 4 5 5 6 7 6 6 6 6 7 7 7 8 9 9 9 10
17 17 21 21 22 21 21 20 17 16 14 12 9 7 5 5 6 6 4 2 1 0 1 1 2 4 5 6 6 6 6 6 7 5 4 4 6 7 6 7 9 11 12
16 19 19 23 23 22 22 22 20 18 15 13 11 9 8 6 6 6 4 3 2 1 2 2 3 5 6 7 7 7 8 7 4 2 3 2 7 9 10 10 11 12 11
17 18 22 23 25 24 24 23 21 20 16 13 12 12 9 7 6 6 7 5 4 3 3 3 4 6 7 8 8 7 7 4 2 3 5 5 9 12 12 11 12 11 12
21 21 21 24 26 26 25 25 22 20 17 15 14 13 10 9 9 10 9 6 4 3 3 4 5 7 8 8 7 6 6 3 3 4 5 5 5 6 13 13 12 12 13
23 18 20 25 27 28 27 26 23 22 19 18 16 15 13 12 12 11 9 6 4 3 4 5 5 7 8 9 8 6 5 4 6 6 6 5 5 5 7 12 13 13 14
22 22 19 21 27 28 28 27 24 24 21 18 17 17 15 14 12 11 9 7 6 5 6 7 9 9 11 13 10 8 5 6 6 7 6 7 7 7 8 10 12 14 15
22 22 18 19 23 27 28 28 26 23 21 21 21 19 18 15 13 11 10 10 8 7 7 8 10 11 14 15 11 10 6 8 5 5 7 8 8 9 10 12 16 17 18
22 19 17 20 22 27 32 28 26 24 24 24 23 23 21 18 14 13 12 10 7 7 9 9 10 10 14 16 13 12 4 7 7 2 5 12 6 9 12 16 20 20 22
17 17 18 22 27 34 36 34 29 28 25 24 24 23 21 20 17 14 12 10 8 9 10 9 7 10 15 19 12 9 4 1 5 8 9 13 7 13 15 17 22 21 19
20 17 19 21 29 33 36 29 33 33 26 27 24 24 22 21 18 15 12 10 9 10 9 10 11 9 10 16 7 2 4 3 3 9 10 5 13 13 17 26 24 23 20
20 21 22 25 29 30 35 34 34 28 29 25 25 25 22 20 18 15 12 10 9 9 10 10 11 11 8 10 13 6 2 2 8 6 9 9 12 12 21 20 20 21 22
25 22 21 27 32 35 36 37 40 31 25 22 31 26 23 19 17 14 12 10 9 9 9 9 9 10 9 8 5 8 2 3 3 5 4 11 6 20 18 19 22 20 20
26 26 26 29 32 36 39 39 37 27 23 33 29 27 23 19 16 14 11 10 9 8 8 8 8 8 8 6 5 3 3 5 5 5 9 10 21 20 20 18 20 18 18
25 26 29 30 31 37 37 36 38 37 33 35 30 27 23 20 17 13 11 8 8 7 6 6 6 7 7 6 4 3 2 3 6 7 6 16 18 17 25 18 15 16 18
Wind_Direction
169 161 161 173 166 163 157 154 148 141 133 130 141 154 165 155 146 140 125 104 41 36 45 54 55 55 112 160 140 128 121 48 357 353 352 345 2 24 29 243 257 252 291
163 162 167 171 174 168 161 158 156 148 135 119 138 151 160 154 151 139 118 96 63 46 45 66 80 49 57 82 91 98 82 44 325 339 345 0 26 21 14 174 243 232 259
163 164 168 176 176 170 164 165 163 151 136 114 145 149 135 133 158 107 119 129 77 47 44 59 104 119 24 68 94 87 43 0 329 317 330 347 353 2 340 285 251 268 260
166 166 171 175 179 174 169 168 160 151 144 138 154 136 125 137 117 151 165 115 77 37 40 59 81 78 338 249 315 307 309 316 304 314 322 307 312 324 328 313 263 257 283
170 174 175 176 178 175 170 169 163 150 141 137 142 150 171 157 170 170 180 185 104 29 37 50 59 57 46 46 24 8 353 341 331 333 337 332 309 295 280 282 289 246 258
169 177 179 181 182 177 176 170 163 154 151 151 150 163 182 197 226 232 229 217 222 354 24 35 36 27 21 9 355 342 338 330 323 325 332 325 316 311 296 279 265 271 265
171 177 181 184 185 186 179 171 166 160 156 166 173 179 194 167 205 250 220 210 233 298 3 16 5 350 350 348 344 337 329 294 303 317 326 328 321 319 303 289 278 269 270
173 177 183 187 192 192 186 176 171 164 158 161 183 191 197 221 289 11 176 208 219 248 348 355 340 345 351 5 3 3 5 350 345 336 333 331 327 324 303 295 284 270 262
177 182 184 184 190 194 192 184 176 165 156 149 165 188 201 228 241 79 144 164 181 276 351 349 357 15 22 11 353 339 322 315 321 322 320 312 314 318 301 291 285 275 263
183 191 191 191 193 196 192 191 182 167 176 192 167 180 210 228 222 172 154 160 156 43 21 25 16 351 342 335 328 327 325 328 315 305 317 317 315 316 315 321 319 314 298
195 199 201 198 198 203 204 195 188 171 179 201 195 196 219 225 214 194 171 153 148 120 24 356 336 331 330 330 347 349 344 347 345 336 325 316 319 322 324 326 327 321 319
204 207 208 207 208 205 203 200 195 188 192 200 205 214 210 185 178 170 167 162 148 351 312 306 330 355 21 19 5 351 352 352 350 350 342 334 326 331 333 340 350 20 9
210 210 213 212 214 209 205 201 200 198 199 200 205 206 185 156 164 164 148 122 142 350 336 346 3 17 11 2 349 347 343 336 339 337 347 7 27 21 26 38 40 30 24
211 220 220 215 216 213 212 203 201 200 199 199 201 197 191 168 158 150 150 141 158 161 68 58 20 5 353 353 345 343 340 339 352 35 69 74 66 63 61 50 40 34 37
234 227 224 222 220 214 210 207 202 200 200 199 195 188 185 182 180 171 151 140 115 88 62 19 3 356 353 349 342 345 351 4 46 94 97 89 94 64 58 50 38 38 23
243 238 232 228 224 217 210 206 201 198 194 193 189 191 190 196 182 171 154 129 123 85 42 20 10 3 1 357 356 9 15 40 94 113 107 92 85 70 55 46 39 28 18
260 259 248 233 226 218 209 202 199 195 191 189 187 193 187 185 178 163 147 123 98 83 49 28 18 17 8 9 10 14 31 100 123 106 102 85 69 52 34 35 26 15 8
261 267 263 239 220 208 202 195 192 191 187 186 179 179 178 173 167 157 141 123 105 82 52 32 27 17 9 5 5 5 1 175 115 99 85 64 48 35 22 10 5 4 358
259 263 250 221 205 195 191 187 189 184 184 179 173 171 166 159 161 157 137 122 103 75 52 40 33 25 10 3 2 350 333 182 154 110 69 32 15 17 7 354 349 344 340
257 246 231 206 191 182 180 176 173 172 172 170 170 165 162 156 153 147 134 115 95 74 62 50 45 35 23 6 2 355 84 183 205 232 340 349 331 348 348 344 344 340 335
234 222 204 186 181 179 170 162 161 162 163 163 162 161 157 153 150 145 128 114 94 74 66 58 54 40 27 21 9 1 25 302 254 269 297 322 335 338 343 340 338 335 331
217 200 185 180 179 175 168 161 163 161 159 157 154 152 153 149 144 137 125 111 93 83 79 62 51 47 39 35 29 3 5 339 353 310 322 323 323 329 327 332 330 329 327
206 193 186 180 175 167 167 163 156 154 149 146 150 148 148 147 141 133 122 109 100 90 79 64 52 49 48 42 50 39 349 331 332 308 299 310 325 328 324 325 326 319 319
204 192 183 181 172 177 174 166 163 159 156 161 157 152 145 145 137 129 122 114 105 91 78 66 56 48 45 40 40 26 27 276 311 309 284 292 299 314 315 317 320 314 319
194 189 186 179 176 180 177 176 167 154 161 159 154 148 146 140 135 130 125 118 108 91 77 64 50 41 41 45 29 354 344 311 258 260 303 302 310 314 313 314 309 313 315
186 181 182 176 174 180 180 177 175 169 159 155 154 151 147 141 136 132 128 121 104 89 71 53 38 29 28 21 2 332 294 289 286 284 288 305 303 313 313 307 315 310 314